[[{"header":{"parameterUnit":"m.s-1","parameterCategory":1,"la1":30.2991,"la2":30.254,"lo1":-89.0895,"lo2":-89.0444,"dy":0.0017,"dx":0.0017,"nx":28,"ny":28,"refTime":"2025-12-14T09:00:00:Z","depth":0,"parameterNumber":2,"parameterNumberName":"U-component_of_WINDS"},"data":[0,0,0,0,0,0,0,0,0,0,0,0,0,0,0,0,0,0,0,0,0,0,0,0,0,0,0,0,0,0,0,0,0,0,0,0,0,0,0,0,0,0,0,0,0,0,0,0,0,0,0,0,0,0,0,0,0,0,2.1094,2.1095,0,2.1171,2.1172,2.1173,2.1165,2.1164,2.1162,2.1161,2.1242,2.1245,2.1248,0,0,0,0,0,0,0,0,0,0,0,0,0,2.0942,2.0945,2.1094,2.1095,2.1096,2.1171,2.1172,2.1173,2.1165,2.1163,2.1162,2.1161,2.1241,2.1245,2.1249,0,0,0,0,0,0,0,0,0,0,0,0,0,2.1012,2.0946,2.1094,2.1101,2.1102,2.1171,2.1172,2.1173,2.1165,2.1163,2.1162,2.116,2.1239,2.1244,2.1249,2.1316,0,0,2.1264,2.1266,0,0,0,0,0,0,0,0,2.1008,2.1018,2.1099,2.11,2.1102,2.1156,2.1148,2.1221,2.1166,2.1141,2.1161,2.1159,2.1215,2.1222,2.124,2.132,2.1323,2.1265,2.1268,2.127,2.1271,0,0,0,0,0,0,0,2.1003,2.1015,2.1124,2.11,2.1102,2.1101,2.1109,2.1162,2.1188,2.1143,2.1143,2.1152,2.1216,2.1236,2.1242,2.1325,2.1264,2.1269,2.1272,2.1274,2.1464,2.1466,0,0,0,0,0,0,2.0997,2.1011,2.1122,2.1127,2.105,2.1105,2.1114,2.1141,2.1187,2.1192,2.1154,2.1151,2.1228,2.1236,2.1245,2.1327,2.127,2.1274,2.1277,2.1462,2.1465,2.1467,0,0,0,0,0,0,2.0993,2.1007,2.1119,2.1069,2.1083,2.111,2.114,2.1143,2.1163,2.1195,2.1199,2.1169,2.1227,2.1238,2.1299,2.133,2.1277,2.1281,2.146,2.1463,2.1466,2.1492,0,0,0,0,0,0,2.0989,2.1005,2.103,2.1069,2.1085,2.117,2.1142,2.1146,2.1172,2.117,2.1211,2.1216,2.1226,2.1291,2.1304,2.1336,2.1285,2.1457,2.1461,2.1465,2.1488,2.1495,2.1501,0,0,0,0,0,2.0984,2.1035,2.1032,2.1045,2.1117,2.1172,2.1182,2.1193,2.1174,2.12,2.122,2.1214,2.1325,2.1298,2.1311,2.1345,2.1455,2.146,2.1465,2.1485,2.1494,2.1501,0,0,0,0,0,0,2.0999,2.104,2.1037,2.1102,2.1134,2.1171,2.1203,2.1201,2.1239,2.1236,2.1248,2.1258,2.1319,2.1338,2.1308,2.1413,2.1388,2.1395,2.1398,2.1407,2.1413,2.1407,2.1289,0,0,0,0,0,2.101,2.105,2.1084,2.1138,2.1154,2.1176,2.1201,2.1207,2.124,2.1254,2.1278,2.1312,2.1354,2.1382,2.1422,2.1491,2.15,2.1521,2.1528,2.1533,2.154,2.1579,2.1589,2.1483,2.1483,2.1483,0,0,2.1033,2.106,2.1085,2.1142,2.1167,2.121,2.1188,2.1233,2.1265,2.1261,2.1319,2.1339,2.1377,2.1443,2.1473,2.1461,2.1571,2.1539,2.1543,2.1547,2.1585,2.1595,2.1603,2.1486,2.1485,2.1485,0,0,2.1097,2.1121,2.1169,2.1195,2.1234,2.1248,2.126,2.1298,2.131,2.137,2.1367,2.1406,2.1478,2.1506,2.153,2.1606,2.1602,2.1619,2.1653,2.1691,2.1699,2.1707,2.1734,2.1744,2.1625,2.1625,2.1625,0,2.112,2.1184,2.1194,2.1241,2.1266,2.1264,2.1314,2.1339,2.1389,2.1407,2.1393,2.1484,2.151,2.1582,2.1601,2.162,2.1634,2.1614,2.1697,2.1705,2.1712,2.1738,2.1749,2.1627,2.1627,2.1626,2.1626,0,2.1211,2.1256,2.129,2.1338,2.1368,2.1416,2.1434,2.1463,2.1467,2.1483,2.1545,2.1575,2.1623,2.164,2.1644,2.1714,2.1705,2.1694,2.1668,2.1723,2.1749,2.1759,2.1629,2.1629,2.1628,2.1628,0,0,2.1286,2.134,2.1352,2.1375,2.1418,2.1453,2.1501,2.1547,2.1572,2.1607,2.1649,2.1711,2.1701,2.1728,2.1735,2.1768,2.1828,2.1753,2.1755,2.1766,2.1907,2.1915,2.1926,2.1826,2.1828,2.1829,2.1904,0,2.1354,2.1438,2.145,2.1525,2.1567,2.1566,2.1609,2.164,2.1657,2.1696,2.1715,2.1759,2.1742,2.1759,2.1792,2.1813,2.1856,2.1808,2.1865,2.1867,2.1855,2.194,2.1948,2.2017,2.1914,2.1915,2.1917,0,2.1444,2.1482,2.1561,2.1599,2.1617,2.1655,2.1699,2.1735,2.1772,2.1782,2.1813,2.1816,2.1868,2.184,2.1912,2.1879,2.1903,2.1918,2.1921,2.1926,2.1895,2.1947,2.2039,2.2049,2.1932,2.1931,2.193,0,2.1491,2.1561,2.1618,2.1637,2.1683,2.171,2.1731,2.1765,2.1793,2.1831,2.1849,2.1894,2.1918,2.1953,2.1969,2.1947,2.204,2.2014,2.205,2.205,2.2069,2.2068,2.2166,2.2085,2.2085,2.2085,2.2085,0,2.1565,2.1614,2.164,2.1675,2.173,2.1743,2.1798,2.1818,2.1849,2.1888,2.1891,2.1928,2.1947,2.1988,2.2001,2.2059,2.207,2.208,2.2083,2.208,2.2079,2.2096,2.2091,2.2088,2.2087,2.2087,2.2086,0,2.1626,2.1645,2.1707,2.1746,2.1757,2.1796,2.183,2.1865,2.1882,2.1932,2.1945,2.1972,2.202,2.204,2.2099,2.2108,2.2174,2.2174,2.2162,2.2163,2.2199,2.2195,2.2311,2.2327,2.2236,2.2236,2.2237,0,2.1673,2.171,2.1753,2.178,2.1801,2.1844,2.1872,2.1887,2.1917,2.1962,2.1991,2.2039,2.2078,2.2155,2.2181,2.2227,2.2227,2.2265,2.2234,2.223,2.2228,2.2226,2.223,2.227,2.2271,2.2272,2.2272,0,2.1753,2.1761,2.18,2.1844,2.1877,2.1913,2.1947,2.1969,2.199,2.2023,2.2072,2.2102,2.2163,2.2211,2.2258,2.2281,2.2281,2.2282,2.2293,2.229,2.2282,2.2287,2.2177,2.2279,2.2279,2.2278,2.2278,2.2277,2.1808,2.1842,2.1877,2.1922,2.195,2.1982,2.2017,2.2038,2.2079,2.2129,2.2137,2.2189,2.2227,2.229,2.2314,2.2357,2.2347,2.2363,2.2367,2.2371,2.2373,2.2275,2.2365,2.2365,2.2365,2.2365,2.2365,0,2.1889,2.1912,2.1953,2.2001,2.2036,2.2033,2.2071,2.2102,2.2148,2.2182,2.2221,2.2278,2.2325,2.2355,2.2402,2.243,2.2432,2.2442,2.244,2.2446,2.2379,2.2365,2.2441,2.2441,2.2441,2.2441,2.2441,2.2441,2.1935,2.1991,2.2004,2.2075,2.2098,2.2149,2.2171,2.2202,2.223,2.2293,2.2332,2.2351,2.2384,2.2434,2.2478,2.2485,2.2503,2.2514,2.2522,2.2458,2.245,2.2443,2.243,2.2518,2.2518,2.2585,2.2586,2.2586]},{"header":{"parameterUnit":"m.s-1","parameterCategory":1,"la1":30.2991,"la2":30.254,"lo1":-89.0895,"lo2":-89.0444,"dy":0.0017,"dx":0.0017,"nx":28,"ny":28,"refTime":"2025-12-14T09:00:00:Z","depth":0,"parameterNumber":3,"parameterNumberName":"V-component_of_WINDS"},"data":[0,0,0,0,0,0,0,0,0,0,0,0,0,0,0,0,0,0,0,0,0,0,0,0,0,0,0,0,0,0,0,0,0,0,0,0,0,0,0,0,0,0,0,0,0,0,0,0,0,0,0,0,0,0,0,0,0,0,-3.7224,-3.7224,0,-3.7209,-3.7209,-3.7209,-3.7231,-3.7232,-3.7233,-3.7234,-3.7212,-3.721,-3.7209,0,0,0,0,0,0,0,0,0,0,0,0,0,-3.727,-3.7269,-3.7224,-3.7224,-3.7224,-3.7209,-3.7209,-3.7209,-3.7231,-3.7232,-3.7233,-3.7234,-3.7212,-3.7211,-3.7209,0,0,0,0,0,0,0,0,0,0,0,0,0,-3.7252,-3.7269,-3.7224,-3.7233,-3.7234,-3.7209,-3.7209,-3.7209,-3.7231,-3.7232,-3.7233,-3.7234,-3.7213,-3.7211,-3.7209,-3.7172,0,0,-3.7203,-3.7202,0,0,0,0,0,0,0,0,-3.7253,-3.725,-3.7232,-3.7233,-3.7233,-3.7223,-3.7217,-3.7196,-3.7231,-3.7232,-3.7234,-3.7235,-3.7214,-3.7212,-3.7206,-3.7171,-3.717,-3.7202,-3.7201,-3.72,-3.72,0,0,0,0,0,0,0,-3.7254,-3.7251,-3.7218,-3.7232,-3.7233,-3.7238,-3.7236,-3.7213,-3.7216,-3.7232,-3.7233,-3.7232,-3.7215,-3.7208,-3.7206,-3.717,-3.7203,-3.7201,-3.72,-3.7199,-3.711,-3.7109,0,0,0,0,0,0,-3.7255,-3.7252,-3.7219,-3.7218,-3.7247,-3.7236,-3.7234,-3.7225,-3.7217,-3.7217,-3.7231,-3.7233,-3.7211,-3.7208,-3.7205,-3.7166,-3.72,-3.7199,-3.7197,-3.7111,-3.711,-3.7108,0,0,0,0,0,0,-3.7256,-3.7252,-3.7219,-3.7235,-3.7232,-3.7234,-3.7223,-3.7224,-3.7218,-3.7216,-3.7216,-3.7224,-3.7212,-3.7208,-3.7182,-3.7165,-3.7198,-3.7196,-3.7112,-3.7111,-3.7109,-3.7084,0,0,0,0,0,0,-3.7257,-3.7252,-3.7238,-3.7235,-3.7231,-3.7196,-3.7222,-3.7223,-3.7215,-3.7218,-3.7209,-3.7209,-3.7213,-3.7185,-3.718,-3.7163,-3.7194,-3.7114,-3.7112,-3.7109,-3.7086,-3.7081,-3.7077,0,0,0,0,0,-3.7259,-3.7229,-3.7237,-3.7233,-3.7214,-3.7195,-3.7193,-3.7199,-3.7214,-3.72,-3.72,-3.7209,-3.7168,-3.7182,-3.7177,-3.7159,-3.7115,-3.7112,-3.711,-3.7088,-3.7082,-3.7077,0,0,0,0,0,0,-3.7226,-3.7229,-3.7238,-3.7206,-3.7201,-3.7199,-3.7182,-3.7192,-3.7181,-3.7183,-3.719,-3.7188,-3.7161,-3.7157,-3.7173,-3.7126,-3.7144,-3.714,-3.7129,-3.7124,-3.7119,-3.7121,-3.7193,0,0,0,0,0,-3.7217,-3.7203,-3.7205,-3.7177,-3.7174,-3.7179,-3.7171,-3.7177,-3.7171,-3.7168,-3.7165,-3.7157,-3.7143,-3.7133,-3.7119,-3.7086,-3.7086,-3.7072,-3.7067,-3.7064,-3.706,-3.7046,-3.7041,-3.71,-3.71,-3.71,0,0,-3.7194,-3.7194,-3.7183,-3.7171,-3.7167,-3.7153,-3.7176,-3.7158,-3.7148,-3.7164,-3.7141,-3.7139,-3.7131,-3.7103,-3.709,-3.7098,-3.7044,-3.706,-3.7057,-3.7056,-3.7043,-3.7037,-3.7032,-3.7098,-3.7098,-3.7099,0,0,-3.7146,-3.7144,-3.7123,-3.712,-3.7117,-3.7121,-3.7116,-3.7114,-3.7114,-3.7092,-3.7105,-3.7093,-3.7067,-3.7062,-3.7056,-3.7014,-3.7023,-3.7009,-3.6986,-3.6972,-3.6968,-3.6963,-3.6951,-3.6946,-3.7006,-3.7006,-3.7005,0,-3.7118,-3.7098,-3.711,-3.7093,-3.7088,-3.7107,-3.7086,-3.7082,-3.7073,-3.7069,-3.708,-3.7052,-3.7047,-3.702,-3.7011,-3.7005,-3.7,-3.7009,-3.6968,-3.6964,-3.696,-3.6948,-3.6943,-3.7004,-3.7004,-3.7004,-3.7004,0,-3.7066,-3.7052,-3.7035,-3.703,-3.7024,-3.7004,-3.7014,-3.7005,-3.7014,-3.7017,-3.6996,-3.6992,-3.6981,-3.6975,-3.698,-3.6949,-3.6956,-3.6967,-3.6985,-3.6953,-3.6942,-3.6937,-3.7002,-3.7002,-3.7003,-3.7003,0,0,-3.6993,-3.7,-3.6993,-3.6994,-3.6993,-3.6983,-3.6966,-3.6958,-3.6952,-3.6946,-3.6933,-3.6914,-3.6927,-3.6921,-3.6927,-3.6915,-3.6886,-3.6928,-3.6928,-3.6922,-3.6855,-3.6847,-3.6841,-3.6893,-3.6892,-3.6891,-3.6856,0,-3.6948,-3.6921,-3.6934,-3.6906,-3.6895,-3.6915,-3.6901,-3.69,-3.6904,-3.6895,-3.6899,-3.6887,-3.6902,-3.69,-3.6889,-3.6891,-3.6872,-3.6894,-3.6881,-3.688,-3.6883,-3.6835,-3.6825,-3.6792,-3.6851,-3.6851,-3.685,0,-3.689,-3.6887,-3.6859,-3.6866,-3.6862,-3.6849,-3.6845,-3.6836,-3.6836,-3.6841,-3.6837,-3.6847,-3.6832,-3.6852,-3.6832,-3.6847,-3.6843,-3.6844,-3.6843,-3.6842,-3.6863,-3.6833,-3.6781,-3.6777,-3.6843,-3.6843,-3.6844,0,-3.6843,-3.6831,-3.6815,-3.6814,-3.682,-3.6812,-3.6814,-3.6816,-3.6812,-3.6808,-3.6806,-3.6799,-3.6796,-3.6791,-3.68,-3.6813,-3.6781,-3.68,-3.6784,-3.6784,-3.6775,-3.6775,-3.6723,-3.6771,-3.6771,-3.6772,-3.6772,0,-3.6791,-3.6774,-3.6794,-3.6784,-3.6766,-3.6781,-3.6763,-3.6767,-3.677,-3.6761,-3.6777,-3.6768,-3.6781,-3.6773,-3.678,-3.6765,-3.6762,-3.6766,-3.6768,-3.6765,-3.6765,-3.6762,-3.6764,-3.677,-3.6771,-3.6771,-3.6771,0,-3.6734,-3.6747,-3.6731,-3.6741,-3.6744,-3.673,-3.6739,-3.673,-3.6737,-3.6726,-3.6724,-3.6735,-3.6728,-3.6738,-3.6729,-3.6735,-3.6715,-3.6719,-3.6715,-3.6717,-3.6702,-3.6704,-3.6645,-3.664,-3.6691,-3.6691,-3.669,0,-3.6701,-3.6689,-3.6699,-3.6696,-3.6699,-3.6692,-3.669,-3.6706,-3.6703,-3.6706,-3.6697,-3.6692,-3.6689,-3.6677,-3.6683,-3.6679,-3.6684,-3.6665,-3.6683,-3.6682,-3.6686,-3.6687,-3.6687,-3.666,-3.666,-3.6659,-3.6659,0,-3.664,-3.6649,-3.6646,-3.6647,-3.6644,-3.6645,-3.6646,-3.6642,-3.666,-3.6656,-3.6651,-3.6649,-3.6644,-3.664,-3.6638,-3.664,-3.6653,-3.6654,-3.665,-3.6646,-3.6645,-3.6648,-3.6706,-3.6654,-3.6654,-3.6655,-3.6655,-3.6655,-3.6595,-3.6587,-3.6595,-3.6592,-3.6596,-3.6599,-3.6593,-3.6602,-3.6599,-3.6598,-3.6608,-3.6601,-3.6606,-3.6606,-3.6607,-3.6603,-3.6611,-3.6605,-3.6604,-3.6603,-3.6601,-3.6647,-3.6602,-3.6602,-3.6602,-3.6603,-3.6603,0,-3.6537,-3.6544,-3.6542,-3.6547,-3.6545,-3.6561,-3.6565,-3.6563,-3.6558,-3.6562,-3.6561,-3.6557,-3.6555,-3.6563,-3.6562,-3.6557,-3.6563,-3.6556,-3.6557,-3.6558,-3.6592,-3.6597,-3.6552,-3.6552,-3.6552,-3.6552,-3.6552,-3.6552,-3.6506,-3.6495,-3.6506,-3.6498,-3.6505,-3.6501,-3.6503,-3.6506,-3.651,-3.6507,-3.6506,-3.6513,-3.652,-3.6521,-3.6519,-3.6522,-3.6521,-3.6513,-3.6518,-3.655,-3.6555,-3.6559,-3.6564,-3.6512,-3.6512,-3.6484,-3.6483,-3.6483]}]]